Theta_e
303 302 303 304 304 305 304 302 303 305 306 307 308 308 310 313 315 315 314 312 315 312 345 350 347 346 345 349 351 354 365 363 357 360 358 355 358 354 351 350 349 346 346 344 345
301 301 302 302 303 306 307 305 303 305 307 308 308 310 312 315 314 315 310 311 314 315 346 345 345 344 345 347 351 358 362 361 353 354 354 355 357 357 357 354 351 349 344 344 347
301 301 301 301 303 305 306 306 303 306 310 309 310 311 315 314 315 313 319 331 314 317 341 341 340 339 339 345 348 354 361 357 355 354 351 356 358 355 358 360 353 352 348 346 347
301 301 301 301 303 306 307 305 304 309 309 308 313 312 315 314 313 314 315 323 315 327 337 337 338 334 333 342 342 355 354 356 354 352 352 355 356 358 357 355 352 348 346 346 347
301 301 301 301 304 307 306 304 307 309 308 311 314 313 313 314 313 322 323 324 327 330 333 330 334 329 326 330 334 345 347 345 349 348 346 347 355 355 357 353 348 346 346 347 347
301 301 301 302 306 307 305 308 308 308 310 315 312 315 315 311 317 323 323 327 326 332 328 328 329 327 326 328 329 332 338 341 340 337 342 344 350 356 354 348 348 347 347 346 346
301 300 301 303 307 306 307 308 308 308 314 314 313 314 315 312 314 314 325 327 333 330 326 326 328 325 323 323 324 331 332 331 331 333 338 347 356 357 351 349 349 348 347 346 347
300 300 302 305 308 306 308 307 308 312 315 315 316 317 317 315 316 317 322 325 329 320 323 318 321 322 320 320 320 322 326 336 336 336 336 351 357 360 350 350 351 349 348 347 347
300 301 303 308 309 307 307 308 313 316 317 318 319 318 315 313 313 310 315 323 324 321 318 320 318 320 319 321 322 324 321 331 337 333 343 355 356 359 350 351 352 350 349 348 348
300 302 306 310 308 307 307 309 314 318 318 319 318 317 313 310 309 308 309 323 322 319 319 318 320 319 319 321 320 322 322 330 338 338 343 354 355 359 352 352 354 352 350 349 349
301 304 308 311 306 308 307 306 309 309 307 307 308 308 309 308 307 309 318 321 321 318 318 318 320 321 318 319 320 324 326 327 334 338 340 345 353 359 357 352 353 353 351 350 349
304 304 308 309 306 308 309 309 308 308 310 306 305 306 306 306 310 310 315 323 322 320 318 318 318 318 318 317 319 321 325 329 331 331 339 342 344 353 358 357 354 351 351 350 349
306 305 308 308 307 307 307 307 307 306 307 308 308 309 308 308 310 309 314 316 324 322 319 320 320 318 317 317 319 320 322 326 329 331 336 345 347 354 357 357 355 353 350 349 350
306 305 309 308 306 307 306 306 307 306 309 310 309 308 308 306 310 308 314 314 318 326 321 321 320 318 318 318 318 320 320 322 325 327 340 346 352 356 357 360 357 356 354 352 350
306 305 307 309 309 308 307 308 305 303 309 309 309 307 307 308 308 310 314 315 316 325 324 325 323 321 320 318 318 318 318 318 321 326 330 333 353 348 354 360 359 356 355 353 351
306 305 307 308 307 307 307 306 305 310 308 309 308 307 308 307 309 310 314 315 317 319 319 325 320 324 322 321 319 319 323 320 320 322 329 332 337 345 348 352 353 355 355 353 351
307 305 308 307 307 307 307 306 310 309 308 308 307 306 307 307 308 311 315 314 319 321 322 320 321 319 322 324 323 322 323 330 327 326 328 332 334 338 339 345 344 350 355 354 352
306 307 307 306 305 307 305 310 310 308 309 308 307 306 307 307 307 310 312 315 312 315 321 323 322 321 321 322 325 326 328 326 330 327 325 331 337 338 336 336 342 345 348 351 353
305 307 306 305 306 306 310 311 311 310 310 309 308 307 307 307 307 308 312 316 312 311 318 322 321 317 320 321 323 326 330 327 328 327 328 329 333 333 332 334 335 337 343 347 349
304 304 306 306 307 305 310 309 311 310 310 309 308 307 308 308 308 307 309 315 311 311 314 317 311 314 319 319 321 324 326 331 330 329 333 330 332 334 337 335 334 337 340 342 346
303 309 306 306 306 310 312 310 309 309 310 311 308 308 308 308 308 308 308 312 312 310 313 312 311 309 314 321 324 324 325 326 329 330 331 333 331 330 333 336 336 335 339 343 346
304 311 306 305 309 306 309 307 306 309 310 311 310 309 308 308 308 307 307 308 312 310 310 314 314 312 310 316 317 317 322 325 329 334 332 331 331 330 331 331 331 332 334 339 344
305 306 305 305 311 308 307 308 308 309 310 310 312 310 310 310 309 307 308 311 312 311 311 315 315 310 307 316 318 320 319 319 320 322 331 334 332 331 331 332 332 330 331 334 343
306 310 307 305 304 306 307 308 309 309 310 309 310 310 310 310 309 309 309 309 308 310 313 314 314 314 312 316 314 318 318 317 319 326 327 330 331 331 331 332 332 330 328 329 331
305 307 304 309 308 307 306 307 308 309 308 308 309 309 310 310 309 311 308 308 308 312 314 314 312 311 309 309 310 311 312 315 319 321 326 327 329 330 331 331 342 341 343 345 344
307 308 305 307 306 307 307 307 308 308 309 309 309 309 309 310 309 309 309 309 309 310 313 313 310 312 310 308 313 313 312 313 316 317 320 322 326 326 331 342 340 338 339 342 346
304 305 308 307 308 309 309 309 309 308 309 309 309 309 309 309 308 308 308 309 309 309 312 312 310 310 307 311 314 315 316 315 316 323 325 328 327 328 337 341 338 337 337 340 342
Wind_Speed
27 27 27 25 25 24 22 19 17 15 15 14 18 16 14 11 10 4 8 12 21 13 23 21 16 16 10 8 5 3 2 4 2 2 2 5 4 6 8 15 4 9 7 20 30
28 29 29 27 27 25 23 21 17 16 16 18 18 14 8 8 7 12 11 9 14 23 26 27 17 19 6 7 5 5 3 5 2 2 1 7 7 10 8 14 6 7 14 30 32
31 31 31 32 28 27 23 22 19 15 17 17 14 10 4 5 4 3 9 9 21 29 23 19 22 12 8 7 8 6 4 4 3 3 4 6 6 7 11 10 11 19 24 28 32
33 34 33 35 31 29 25 22 18 16 17 15 11 4 2 1 2 3 14 7 28 25 23 18 15 11 8 8 10 6 10 7 2 3 5 5 7 7 14 1 12 20 28 29 24
34 34 35 37 32 30 25 21 17 17 15 11 7 3 2 2 6 15 10 16 26 27 28 18 18 11 12 9 6 13 7 5 8 10 7 4 9 4 11 4 16 21 27 27 25
36 36 39 38 34 28 22 19 19 18 11 6 1 6 2 3 2 11 5 18 23 26 25 18 14 8 8 3 11 4 16 10 8 9 7 8 6 8 4 13 19 23 27 26 25
38 38 40 38 33 26 19 20 22 11 6 5 5 2 1 7 4 9 4 11 19 15 19 13 11 12 6 6 6 9 2 5 10 7 5 6 6 8 12 16 20 22 23 25 24
41 41 41 35 30 21 21 22 10 5 7 7 9 1 4 3 5 1 9 7 12 6 14 4 4 7 3 1 2 6 6 4 3 11 5 10 5 6 15 17 19 21 22 23 24
43 42 41 33 26 18 21 12 8 8 9 9 2 1 3 8 3 5 3 6 15 8 3 10 4 4 4 4 5 5 9 15 5 10 6 11 4 10 14 16 18 20 21 21 22
43 43 39 32 20 16 15 6 7 5 2 4 3 3 2 7 8 4 2 15 7 13 5 8 7 7 8 10 11 11 13 7 14 9 12 13 9 12 16 17 18 19 20 21 22
42 42 39 28 12 15 14 3 4 1 4 3 7 3 6 15 3 2 7 11 9 14 11 8 13 21 21 15 10 7 5 12 7 8 13 16 15 13 16 15 18 19 21 22 24
41 41 36 23 9 10 19 6 8 4 7 1 4 6 7 4 4 9 5 4 8 12 10 6 19 17 15 12 15 12 6 8 9 5 9 12 17 12 18 21 21 21 21 22 21
40 38 32 15 9 10 10 9 8 2 3 5 2 4 3 2 4 9 2 2 10 11 18 12 2 16 16 14 15 18 18 9 6 4 9 5 11 12 15 14 17 19 19 19 22
39 37 26 12 3 11 2 19 22 10 1 4 5 6 5 3 1 6 6 4 6 13 14 12 13 13 18 23 18 19 15 14 11 5 9 10 11 10 15 19 20 20 21 22 23
40 36 16 11 5 3 13 21 3 5 2 5 5 6 8 6 8 4 7 2 5 9 9 9 10 15 16 19 18 13 8 16 18 13 11 12 7 14 13 16 21 22 23 23 23
41 37 8 8 8 13 20 4 3 2 2 2 4 7 5 7 7 9 8 5 1 1 3 12 1 11 13 14 18 11 5 11 12 13 17 19 12 14 13 18 18 20 23 24 25
40 26 3 7 10 21 13 2 2 2 2 4 5 5 3 6 5 8 5 11 5 2 1 2 12 6 6 11 17 16 13 5 8 11 17 16 15 17 8 17 18 19 22 25 25
40 8 11 9 23 13 2 1 3 3 3 3 5 2 1 6 4 6 2 2 8 4 2 3 8 10 4 10 10 21 18 8 12 12 15 16 12 15 23 14 10 14 18 22 24
32 2 8 25 16 2 1 2 2 3 4 6 6 2 1 1 4 2 3 1 4 7 3 2 4 3 3 1 7 11 21 19 9 2 9 14 17 16 7 17 18 17 14 19 23
15 5 9 33 9 2 3 5 3 5 6 2 3 2 3 1 3 2 2 2 3 3 1 2 5 1 3 4 11 9 7 16 13 19 13 8 17 13 20 20 14 11 16 18 20
5 1 18 24 6 6 4 3 3 7 8 4 3 4 2 2 2 3 1 2 2 1 2 1 2 2 4 5 7 8 10 8 9 17 15 10 9 5 17 15 20 23 20 17 18
5 1 24 18 4 3 3 3 5 7 9 4 1 3 2 4 2 3 3 3 2 0 2 1 1 5 5 2 8 6 5 10 11 13 15 16 17 2 8 7 6 9 13 16 17
3 3 15 11 4 4 3 3 3 7 5 5 4 4 4 3 4 2 2 2 2 1 1 2 1 4 6 4 4 2 2 0 2 1 13 13 13 9 18 18 11 12 11 7 13
1 3 5 5 4 6 5 5 5 6 3 4 3 2 2 4 1 4 4 3 5 4 1 2 3 8 8 9 8 5 3 2 4 10 16 16 14 9 10 14 12 9 7 5 5
3 3 2 4 7 7 3 4 8 5 4 3 1 0 1 2 4 5 5 4 3 8 2 2 5 8 15 14 14 16 18 15 12 9 10 15 16 14 12 13 14 9 8 9 8
2 2 2 2 2 4 4 3 3 5 3 2 2 1 7 6 7 9 8 7 6 0 2 1 3 5 15 10 11 17 18 18 17 18 12 16 16 7 12 10 10 9 10 9 11
2 2 0 2 1 2 3 2 1 7 5 8 7 9 10 9 6 9 10 12 11 5 5 3 2 3 8 9 14 11 16 19 13 8 15 13 10 10 9 6 10 13 11 11 12
Wind_Direction
11 8 4 1 357 352 347 345 336 329 328 327 323 317 313 322 312 251 235 233 210 174 154 147 146 145 152 178 212 230 226 208 219 161 89 148 147 130 110 139 140 167 149 149 155
8 5 3 0 355 348 340 337 334 328 328 324 321 307 307 314 294 247 256 248 184 171 160 160 156 154 165 180 202 212 222 207 199 161 26 182 180 145 150 152 123 125 124 145 154
8 4 1 359 353 348 339 333 330 330 332 323 318 301 305 312 278 217 338 280 180 171 169 163 153 158 173 174 188 192 231 216 153 186 4 155 170 166 154 187 185 162 153 157 161
6 2 360 357 351 349 340 331 328 332 332 325 314 286 274 318 270 358 330 259 171 170 164 160 167 169 179 188 201 216 238 249 263 153 347 191 163 187 187 153 174 166 161 160 169
5 1 358 356 352 348 339 330 329 331 327 326 317 166 146 234 264 335 351 150 162 164 170 173 174 178 197 198 177 222 240 243 255 286 290 243 206 217 203 121 143 154 161 167 169
3 1 357 354 352 349 339 336 330 330 329 334 274 142 201 266 168 23 101 150 167 169 172 174 188 183 192 190 211 221 231 253 291 291 259 272 236 193 123 136 145 158 166 169 174
360 360 356 352 352 348 342 333 327 333 350 23 150 123 202 256 236 332 131 171 170 180 170 175 178 191 151 207 229 224 306 242 248 251 241 173 200 209 147 153 154 165 169 172 176
359 359 356 350 350 348 344 337 349 10 41 99 113 349 255 292 341 350 177 161 178 164 183 156 142 192 242 291 153 207 237 232 197 207 225 192 205 155 158 157 161 167 173 176 181
357 357 354 349 351 350 351 11 36 68 66 124 132 304 50 334 11 336 159 162 171 181 126 194 201 216 202 197 189 192 212 217 252 199 189 195 204 161 167 169 166 173 179 182 184
356 356 352 350 353 360 357 52 50 52 37 220 276 242 348 329 317 296 242 149 143 163 171 164 184 211 213 205 206 201 210 210 215 184 207 206 220 166 174 179 177 179 182 189 192
355 356 352 352 8 33 21 13 349 342 37 330 317 275 296 329 12 88 142 141 114 163 183 181 194 211 206 215 222 218 224 222 212 210 204 219 226 192 181 186 185 187 189 193 197
355 356 351 355 27 50 49 76 94 304 310 315 257 266 271 310 26 50 169 162 147 183 179 172 220 218 217 218 221 227 227 221 243 234 220 228 234 206 184 198 194 189 195 198 194
354 355 351 360 42 42 62 69 330 322 240 307 303 319 356 328 33 21 341 172 181 180 194 203 202 193 201 205 215 228 230 218 247 284 240 224 241 201 204 202 199 204 200 201 202
351 355 355 3 25 356 48 332 323 171 317 18 4 31 341 343 140 24 11 257 191 203 190 227 224 187 201 211 208 227 222 238 250 273 234 214 241 205 196 202 203 202 202 203 204
349 351 341 16 332 26 317 329 119 181 224 23 17 331 6 49 326 52 17 213 224 176 186 200 194 193 206 217 205 235 225 226 237 249 270 242 246 234 195 206 212 209 207 207 205
347 344 328 352 340 333 336 14 177 221 186 39 27 358 11 23 8 328 2 18 48 305 244 224 252 204 205 211 197 208 233 224 228 236 244 237 237 241 207 209 218 213 211 209 207
345 342 74 25 328 329 347 170 191 215 358 34 351 349 29 11 15 6 41 46 24 239 190 270 213 190 213 202 206 207 209 197 209 215 235 217 230 233 226 213 219 207 210 209 208
346 19 33 350 337 329 9 140 205 54 25 355 348 333 55 348 43 10 52 57 43 359 73 244 196 213 134 227 216 202 205 206 214 218 228 214 233 226 225 228 230 229 216 209 208
349 50 7 345 345 302 128 115 79 54 338 332 307 274 212 5 338 13 47 84 28 17 351 294 243 332 257 344 202 188 217 224 266 272 241 223 239 255 226 236 232 227 221 213 208
342 330 3 349 2 55 79 92 97 36 342 316 294 7 236 237 306 302 230 171 152 40 324 96 285 125 299 290 234 229 203 202 226 237 234 210 233 230 204 227 221 210 218 222 212
13 24 352 356 28 53 75 74 77 20 17 346 334 302 329 303 278 253 270 159 194 79 60 83 271 202 266 199 235 191 210 218 242 228 228 236 234 214 222 223 227 228 222 219 209
345 44 354 4 48 35 64 6 333 13 13 15 19 34 12 354 282 258 284 318 131 342 283 81 232 265 261 339 304 292 278 249 228 206 236 250 236 245 233 241 224 248 245 242 226
32 314 7 19 63 46 17 39 32 16 26 17 33 14 11 349 308 338 326 10 216 204 173 183 231 271 238 180 106 80 94 179 264 171 233 225 241 239 264 267 253 268 267 257 237
3 26 44 54 61 67 24 24 16 40 72 13 358 16 357 15 249 299 314 22 348 326 102 190 252 263 273 341 344 294 257 232 270 225 227 233 260 256 234 271 318 317 305 321 250
13 69 6 26 34 57 70 6 7 14 358 356 110 356 66 266 277 213 269 280 344 332 136 236 257 281 285 288 285 273 266 257 249 259 236 228 241 259 287 320 321 321 322 314 307
51 61 89 91 347 18 29 43 5 328 303 354 242 285 288 268 272 278 286 278 272 300 172 185 248 297 292 298 290 271 261 250 243 249 249 262 277 283 318 320 336 344 335 322 313
63 84 359 54 18 1 20 331 271 321 275 249 305 300 286 287 311 281 269 265 257 264 205 214 231 274 266 333 312 272 249 233 229 216 219 223 229 327 297 349 360 345 338 328 314